Погода в Выбитях

Россия / Новгородская область     58°04′15″N   30°25′10″E
темп.,
°C
ветер,
м/с
пор.,
м/с
влажн.,
%
обл.,
%
осадки,
мм/ч
давл.,
гПа
погр.,
м
17 сентября, пт
пт1700:00+4вюв2278100 0.0 102131
03:00+4в2377100 0.0 102153
06:00+5в2578100 0.0 1021146
09:00+7в367254 0.0 1021412
12:00+10всв465523 0.0 10211362
15:00+11всв564814 0.0 10211549
18:00+9всв375836 0.0 1021397
21:00+6всв412755 0.0 1022376
18 сентября, сб
сб1800:00+3в388516 0.0 1024186
03:00+2в268569 0.0 1024123
06:00+2в398690 0.0 1025176
09:00+6в4106995 0.0 1025375
12:00+10в5851100 0.0 10241368
15:00+12всв5748100 0.0 10231477
18:00+10всв495872 0.0 1023734
21:00+7в51268100 0.0 1024651
19 сентября, вс
вс1900:00+5всв51374100 0.0 1024533
03:00+4всв51279100 0.0 1023452
06:00+3всв51280100 0.0 1023445
09:00+5всв51372100 0.0 1023537
12:00+9всв61059100 0.0 1023896
15:00+10всв61054100 0.0 10231214
18:00+9всв61160100 0.0 10231162
21:00+7всв61164100 0.0 1023909
20 сентября, пн
пн2000:00+6всв51168100 0.0 1023722
03:00+5всв61272100 0.0 1023748
06:00+5всв61279100 0.0 1023727
09:00+5всв6137597 0.0 1024746
12:00+7всв71063100 0.0 1024941
15:00+8всв71057100 0.0 10231186
18:00+7всв6116095 0.0 10231094
21:00+6всв5116380 0.0 1023894
21 сентября, вт
вт2100:00+4св51171100 0.0 1022687
03:00+3св51178100 0.0 1021624
06:00+2св51182100 0.0 1020611
09:00+2св51091100 0.1 1020584
12:00+3св4994100 0.2 1019525
15:00+4св4991100 0.4 1019703
18:00+4св4997100 0.6 1019738
21:00+4св4998100 1.6 1019792